Regional Weather Roundup
Issued by NWS

Home | Current Version | Previous Version | Graphics & Text | Print | Product List | Glossary On
Versions: 1 2 3 4 5 6 7 8 9 10 11 12 13 14 15 16 17 18 19 20 21 22 23 24 25 26 27 28 29 30 31 32 33 34 35 36 37 38 39 40 41 42 43 44 45 46 47 48 49 50
962
ASUS43 KBIS 220502
RWRND

NORTH DAKOTA REGIONAL WEATHER ROUNDUP
NATIONAL WEATHER SERVICE BISMARCK ND
1100 PM CST SAT JAN 21 2017

NOTE: "FAIR" INDICATES FEW OR NO CLOUDS BELOW 12,000 FEET WITH NO
SIGNIFICANT WEATHER AND/OR OBSTRUCTIONS TO VISIBILITY.


NDZ001>003-009>011-017-220600-
NORTHWEST NORTH DAKOTA

CITY           SKY/WX    TMP DP  RH WIND       PRES   REMARKS
WILLISTON      CLOUDY    30  28  92 W10       29.60R
MINOT          CLOUDY    29  27  92 SW6       29.54R FOG
$$

NDZ018>021-031>035-040>046-220600-
SOUTHWEST NORTH DAKOTA

CITY           SKY/WX    TMP DP  RH WIND       PRES   REMARKS
BISMARCK       FOG       17  15  92 CALM      29.60R VSB 1/4
DICKINSON      FAIR      19  16  88 W13       29.56R WCI   6
GARRISON         N/A     26  24  92 W9        29.56R WCI  17
HETTINGER ARPT CLEAR     18  15  88 W9        29.60R WCI   7
$$

NDZ004>008-012>016-024-026-027-054-220600-
NORTHEAST NORTH DAKOTA

CITY           SKY/WX    TMP DP  RH WIND       PRES   REMARKS
GRAND FORKS    FOG       34  32  92 CALM      29.56R VSB 1/4
GRND FRKS AFB  DRZL/FOG  32  32 100 CALM      29.56R VSB 1
DEVILS LAKE    CLOUDY    32  30  92 SW7       29.56R
$$

NDZ022-023-025-028>030-036>039-047>053-220600-
SOUTHEAST NORTH DAKOTA

CITY           SKY/WX    TMP DP  RH WIND       PRES   REMARKS
FARGO          FOG       36  34  92 CALM      29.57R VSB 1/4
JAMESTOWN      CLOUDY    32  31  96 W9        29.56R
$$





USA.gov is the U.S. government's official web portal to all federal, state and local government web resources and services.